SL-8 R/B, 1575

Orbit data source: Space-Track

SL-8 R/B, 1575 is space debris in LEO originally from a launch on Fri, 03 Sep 1965 UTC launched from the Tyuratam Missile And Space Complex (TTMTR). Debris objects in space refer to the collection of defunct objects orbiting the Earth. Examples of debris include non-operational satellites, rocket bodies, and fragments generated from explosions, collisions, or faulty payload assembly.

Loading next visibility...
Identifier
1575, 1965-070F
Orbit
LEO
Country
Flag of CISCIS
Related business
Manufacturer
Yuzhnoe
Mission
Spacecraft
Bus & Motor
S3, Unknown motor
Mass
1,434 kg wet, 1,434 kg dry
Launch date (UTC)
1965-09-03 (61 years ago)
Launch vehicle
Unknown
Launch site
Tyuratam Missile And Space Complex (TTMTR)
Object type
Payload
Rocket body
Debris
Shape & HBR
Unknown
Radar Cross Section
Large (>1 m²)

Expand to show TLE details & history
Last TLE update: 4 hours ago

TLE from 4 hours ago
0 SL-8 R/B
1 01575U 65070F   26120.57455931 -.00000093  00000-0  25094-4 0  9993
2 01575  56.1243 241.5962 0099827  18.1192  81.4291 12.57011037784772
Epoch: 2026-04-30T13:47Z
TLE epoch observation values (Epoch: 2026-04-30T13:47:21.924Z)
Latitude
54.80312°
Longitude
-75.0492°
Altitude
1,431.783 km
Speed
7.156 km/s
True Right ascension
23h 21m 14s
True Declination
54° 39' 18"
Sunlit
Object was in daylight at epoch
Visualization orbit readout
Latitude
Unknown
Longitude
Unknown
Altitude
Unknown
Speed
Unknown
Apparent Right ascension
Unknown
Apparent Declination
Unknown
Sunlit
N/A
Visualization observer readout
Local Sidereal Time
01:37:41
Azimuth
Unknown
Elevation
Unknown
Doppler factor
Unknown
Orbital elements
Apogee altitude
1,513.117 km
Perigee altitude
1,357.122 km
Semi-major axis
7,813.256 km
Eccentricity
0.00998
Inclination
56.1243°
RAAN
241.5962°
Arg. of periapsis
18.1192°
True anomaly
82.56229°
Mean anomaly
81.4291°
Eccentric anomaly
81.99549°
Mean motion
3.14264 °/min
Orbital period
114.55 mins
BSTAR
0.000025094
Loading maneuver chart data...
Computing Atmospheric mass density...
Loading historical data...
Loading historical data...
Loading historical data...
Loading historical data...
Loading historical data...
Loading historical data...
Loading historical data...
Other satellites on launch #70 in the year 1965 (1965-09-03 UTC)

Documentation

Showing up to 5 results
|